1519747200.5,36065,6.25,71546.8,-19.93,-28.43,-28.75,0,*61
1519747201.77,36066,6.25,71542.3,-19.93,-28.47,-28.75,0,*66
1519747203.05,36067,6.25,71540.5,-19.93,-28.43,-28.75,0,*63
1519747204.31,36068,6.25,71540.8,-19.93,-28.43,-28.69,0,*61
1519747205.57,36069,6.25,71540.0,-19.93,-28.43,-28.69,0,*60
1519747206.82,36070,6.25,71540.5,-19.93,-28.43,-28.69,0,*68
1519747208.06,36071,6.19,71536.3,-19.93,-28.37,-28.69,0,*6A
1519747209.32,36072,6.19,71536.0,-19.93,-28.43,-28.69,0,*6A
1519747210.56,36073,6.25,71542.0,-19.93,-28.37,-28.69,0,*68
1519747211.81,36074,6.19,71538.5,-19.93,-28.43,-28.69,0,*6C
1519747213.07,36075,6.25,71538.5,-19.93,-28.43,-28.69,0,*6D
1519747214.35,36076,6.25,71538.3,-19.93,-28.43,-28.75,0,*63
1519747215.59,36077,6.25,71540.8,-19.93,-28.37,-28.53,0,*65
1519747216.87,36078,6.19,71538.5,-19.93,-28.43,-28.75,0,*6D
1519747218.12,36079,6.25,71538.0,-19.93,-28.37,-28.75,0,*6F
1519747219.38,36080,6.25,71536.8,-19.93,-28.53,-28.75,0,*6B
1519747220.66,36081,6.19,71538.5,-19.93,-28.43,-28.75,0,*6B
1519747221.9,36082,6.19,71536.3,-19.93,-28.37,-28.69,0,*66
1519747223.14,36083,6.25,71538.5,-19.95,-28.25,-28.69,0,*62
1519747224.4,36084,6.25,71538.8,-19.93,-28.43,-28.69,0,*63
1519747225.65,36085,6.25,71538.0,-19.93,-28.43,-28.69,0,*62
1519747226.94,36086,6.25,71542.3,-19.93,-28.43,-28.59,0,*62
1519747228.18,36087,6.25,71538.3,-19.91,-28.37,-28.63,0,*6B
1519747229.46,36088,6.19,71538.3,-19.93,-28.43,-28.75,0,*62
1519747230.7,36089,6.25,71540.5,-19.93,-28.37,-28.53,0,*64
1519747231.96,36090,6.25,71536.0,-19.93,-28.37,-28.59,0,*66
1519747233.23,36091,6.25,71540.3,-19.93,-28.37,-28.59,0,*67
1519747234.49,36092,6.25,71538.8,-19.93,-28.37,-28.59,0,*64
1519747235.76,36093,6.25,71538.5,-19.93,-28.25,-28.53,0,*6C
1519747237.05,36094,6.25,71540.8,-19.93,-28.25,-28.59,0,*61
1519747238.31,36095,6.19,71536.8,-19.93,-28.37,-28.59,0,*63
1519747239.6,36096,6.25,71540.3,-19.93,-28.25,-28.59,0,*63
1519747240.84,36097,6.25,71540.0,-19.93,-28.37,-28.69,0,*62
1519747242.11,36098,6.19,71536.8,-19.93,-28.37,-28.59,0,*6E
1519747243.37,36099,6.25,71542.8,-19.93,-28.37,-28.59,0,*6F
1519747244.64,36100,6.25,71540.8,-19.93,-28.37,-28.59,0,*6E
1519747245.9,36101,6.19,71534.5,-19.93,-28.37,-28.59,0,*6F
1519747247.17,36102,6.25,71542.3,-19.93,-28.37,-28.59,0,*6C
1519747248.41,36103,6.25,71538.0,-19.95,-28.21,-28.53,0,*66
1519747249.67,36104,6.25,71542.0,-19.93,-28.25,-28.53,0,*63
1519747250.94,36105,6.25,71540.5,-19.93,-28.21,-28.53,0,*66
1519747252.2,36106,6.25,71538.5,-19.93,-28.37,-28.59,0,*68
1519747253.47,36107,6.25,71542.5,-19.93,-28.37,-28.59,0,*69
1519747254.73,36108,6.25,71540.8,-19.95,-28.43,-28.59,0,*63
1519747255.97,36109,6.25,71536.5,-19.93,-28.37,-28.53,0,*6D
1519747257.26,36110,6.25,71542.5,-19.93,-28.25,-28.59,0,*6C
1519747258.52,36111,6.19,71536.8,-19.95,-28.43,-28.59,0,*6B
1519747259.79,36112,6.19,71538.8,-19.93,-28.37,-28.59,0,*6D
1519747261.05,36113,6.25,71540.5,-19.93,-28.37,-28.59,0,*6C
1519747262.29,36114,6.25,71542.8,-19.95,-28.37,-28.59,0,*6D
1519747263.53,36115,6.19,71536.8,-19.95,-28.37,-28.59,0,*6C
1519747264.77,36116,6.25,71538.0,-19.93,-28.37,-28.53,0,*63
1519747266.01,36117,6.25,71542.0,-19.95,-28.37,-28.59,0,*6E
1519747267.28,36118,6.25,71540.3,-19.93,-28.37,-28.59,0,*67
1519747268.52,36119,6.25,71542.0,-19.95,-28.25,-28.53,0,*69
1519747269.81,36120,6.25,71538.0,-19.93,-28.25,-28.59,0,*6F
1519747271.08,36121,6.25,71536.5,-19.93,-28.21,-28.53,0,*60
1519747272.34,36122,6.25,71540.0,-19.93,-28.25,-28.53,0,*67
1519747273.6,36123,6.25,71542.0,-19.95,-28.25,-28.43,0,*61
1519747274.87,36124,6.25,71540.3,-19.95,-28.25,-28.43,0,*66
1519747276.15,36125,6.25,71540.8,-19.93,-28.21,-28.43,0,*65
1519747277.42,36126,6.25,71540.0,-19.95,-28.25,-28.43,0,*64
1519747278.66,36127,6.25,71544.3,-19.95,-28.37,-28.59,0,*6D
1519747279.93,36128,6.19,71542.3,-19.95,-28.25,-28.59,0,*61
1519747281.17,36129,6.19,71538.5,-19.95,-28.21,-28.37,0,*6C
1519747282.43,36130,6.25,71542.5,-19.95,-28.25,-28.43,0,*63
1519747283.72,36131,6.25,71542.8,-19.93,-28.25,-28.43,0,*64
1519747284.98,36132,6.19,71538.3,-19.95,-28.25,-28.43,0,*61
1519747286.27,36133,6.25,71540.5,-19.93,-28.25,-28.43,0,*66
1519747287.51,36134,6.25,71538.5,-19.95,-28.21,-28.53,0,*62
1519747288.77,36135,6.19,71538.3,-19.93,-28.25,-28.53,0,*61
1519747290.01,36136,6.25,71536.5,-19.95,-28.21,-28.53,0,*60
1519747291.25,36137,6.25,71540.8,-19.95,-28.37,-28.59,0,*6C
1519747292.5,36138,6.25,71542.3,-19.95,-28.25,-28.53,0,*6A
1519747293.73,36139,6.25,71542.3,-19.95,-28.25,-28.53,0,*6B
1519747295.03,36140,6.25,71540.8,-19.93,-28.25,-28.59,0,*69
1519747296.29,36141,6.25,71544.8,-19.95,-28.21,-28.43,0,*61
1519747297.58,36142,6.25,71542.5,-19.93,-28.25,-28.43,0,*60
1519747298.82,36143,6.19,71538.3,-19.95,-28.37,-28.59,0,*6F
1519747300.08,36144,6.19,71540.0,-19.93,-28.25,-28.53,0,*67
1519747301.32,36145,6.25,71544.3,-19.95,-28.25,-28.53,0,*60
1519747302.59,36146,6.25,71540.3,-19.95,-28.25,-28.59,0,*69
1519747303.83,36147,6.25,71542.5,-19.95,-28.25,-28.53,0,*62
1519747305.1,36148,6.19,71536.8,-19.95,-28.25,-28.59,0,*67
1519747306.36,36149,6.19,71542.3,-19.95,-28.25,-28.59,0,*66
1519747307.63,36150,6.19,71540.0,-19.95,-28.21,-28.43,0,*61
1519747308.87,36151,6.19,71538.8,-19.93,-28.37,-28.53,0,*60
1519747310.11,36152,6.25,71540.8,-19.95,-28.21,-28.53,0,*62
1519747311.35,36153,6.25,71540.3,-19.95,-28.25,-28.53,0,*67
1519747312.61,36154,6.25,71544.5,-19.99,-28.25,-28.43,0,*6D
1519747313.87,36155,6.19,71536.5,-19.95,-28.21,-28.43,0,*64
1519747315.13,36156,6.19,71538.5,-19.93,-28.15,-28.43,0,*66
1519747316.39,36157,6.25,71540.8,-19.99,-28.25,-28.47,0,*6A
1519747317.66,36158,6.25,71540.8,-19.99,-28.25,-28.47,0,*65
1519747318.92,36159,6.25,71540.5,-19.95,-28.21,-28.43,0,*68
1519747320.19,36160,6.19,71540.5,-19.95,-28.21,-28.43,0,*62
1519747321.45,36161,6.19,71538.5,-19.95,-28.21,-28.43,0,*63
1519747322.69,36162,6.19,71540.5,-19.95,-28.25,-28.53,0,*65
1519747323.95,36163,6.19,71538.3,-19.99,-28.25,-28.47,0,*6D
1519747325.22,36164,6.25,71544.8,-19.99,-28.25,-28.47,0,*6A
1519747326.46,36165,6.19,71542.0,-19.99,-28.31,-28.63,0,*68
1519747327.72,36166,6.25,71544.8,-19.99,-28.25,-28.59,0,*67
1519747328.99,36167,6.25,71542.8,-19.99,-28.21,-28.43,0,*69
1519747330.23,36168,6.25,71542.0,-19.95,-28.21,-28.37,0,*69
1519747331.44,36169,6.19,71542.0,-19.95,-28.15,-28.37,0,*6F
1519747332.7,36170,6.25,71542.3,-19.99,-28.21,-28.43,0,*6F
1519747333.99,36171,6.19,71542.5,-20.01,-28.25,-28.47,0,*65
1519747335.26,36172,6.25,71544.8,-19.99,-28.25,-28.47,0,*6D
1519747336.52,36173,6.19,71540.3,-19.99,-28.21,-28.47,0,*68
1519747337.78,36174,6.19,71536.3,-19.99,-28.25,-28.47,0,*6B
1519747339.05,36175,6.25,71544.5,-20.01,-28.31,-28.47,0,*64
1519747340.31,36176,6.19,71540.8,-19.99,-28.21,-28.43,0,*69
1519747341.58,36177,6.19,71540.5,-19.99,-28.21,-28.43,0,*68
1519747342.84,36178,6.19,71540.3,-19.99,-28.21,-28.47,0,*63
1519747344.1,36179,6.25,71542.5,-19.99,-28.21,-28.47,0,*62
1519747345.36,36180,6.25,71542.3,-19.99,-28.09,-28.47,0,*6E
1519747346.66,36181,6.19,71538.5,-20.01,-28.25,-28.47,0,*6A
1519747347.87,36182,6.25,71540.0,-19.95,-27.89,-28.15,0,*60
1519747349.1,36183,6.25,71540.5,-19.95,-28.15,-28.43,0,*68
1519747350.37,36184,6.19,71542.0,-19.99,-28.09,-28.21,0,*6A
1519747351.62,36185,6.19,71542.0,-19.99,-28.21,-28.31,0,*60
1519747352.88,36186,6.25,71542.0,-20.01,-28.15,-28.47,0,*6E
1519747354.17,36187,6.25,71540.5,-20.01,-28.25,-28.47,0,*6C
1519747355.43,36188,6.19,71542.8,-19.99,-28.09,-28.43,0,*62
1519747356.67,36189,6.25,71544.3,-20.01,-28.15,-28.37,0,*66
1519747357.97,36190,6.19,71544.0,-20.01,-28.25,-28.47,0,*6A
1519747359.21,36191,6.25,71540.8,-20.01,-28.15,-28.37,0,*6F
1519747360.45,36192,6.19,71540.8,-19.99,-28.21,-28.31,0,*66
1519747361.71,36193,6.19,71542.8,-19.99,-28.09,-28.43,0,*68
1519747362.96,36194,6.25,71542.8,-19.99,-28.21,-28.31,0,*60
1519747364.23,36195,6.19,71540.8,-20.01,-28.15,-28.25,0,*68
1519747365.49,36196,6.19,71542.3,-19.99,-28.09,-28.21,0,*69
1519747366.76,36197,6.19,71542.5,-19.99,-28.05,-28.21,0,*64
1519747368.01,36198,6.25,71544.3,-19.99,-28.05,-28.31,0,*6A
1519747369.25,36199,6.19,71542.5,-19.99,-28.21,-28.31,0,*6D
1519747370.5,36200,6.25,71542.3,-19.99,-28.09,-28.31,0,*64
1519747371.74,36201,6.25,71542.8,-19.99,-28.05,-28.31,0,*69
1519747372.96,36202,6.19,71542.5,-19.99,-27.93,-28.31,0,*6A
1519747374.2,36203,6.25,71542.0,-19.99,-27.93,-28.21,0,*6A
1519747375.44,36204,6.25,71546.8,-19.99,-28.05,-28.31,0,*6C
1519747376.71,36205,6.19,71540.3,-20.01,-28.09,-28.37,0,*6C
1519747377.96,36206,6.19,71542.5,-19.99,-28.05,-28.31,0,*6E
1519747379.2,36207,6.25,71542.5,-19.99,-27.89,-28.05,0,*63
1519747380.49,36208,6.19,71540.3,-20.01,-28.09,-28.09,0,*6C
1519747381.78,36209,6.19,71542.3,-20.01,-28.09,-28.25,0,*63
1519747383.02,36210,6.19,71540.5,-19.99,-27.93,-28.21,0,*68
1519747384.27,36211,6.19,71542.5,-19.99,-27.93,-28.21,0,*69
1519747385.54,36212,6.19,71536.8,-19.99,-28.05,-28.21,0,*6A
1519747386.8,36213,6.19,71538.5,-20.01,-28.09,-28.37,0,*6B
1519747388.04,36214,6.19,71542.5,-19.99,-27.93,-28.09,0,*66
1519747389.28,36215,6.25,71540.8,-19.99,-27.93,-28.21,0,*6D
1519747390.55,36216,6.25,71544.3,-20.01,-28.09,-28.15,0,*6E
1519747391.82,36217,6.25,71546.3,-19.95,-27.99,-28.25,0,*6D
1519747393.11,36218,6.25,71544.3,-20.01,-27.99,-28.25,0,*65
1519747394.4,36219,6.19,71540.5,-20.01,-27.99,-28.09,0,*6A
1519747395.65,36220,6.19,71542.3,-19.99,-28.05,-28.31,0,*6A
1519747396.95,36221,6.19,71542.0,-20.01,-28.09,-28.25,0,*69
1519747398.21,36222,6.19,71538.5,-19.99,-27.99,-28.25,0,*67
1519747399.45,36223,6.25,71544.8,-19.99,-27.89,-28.05,0,*65
1519747400.69,36224,6.25,71540.5,-19.99,-27.89,-28.05,0,*62
1519747401.94,36225,6.19,71540.5,-20.01,-27.93,-28.15,0,*62
1519747403.18,36226,6.25,71546.0,-19.99,-27.93,-28.05,0,*6B
1519747404.47,36227,6.19,71542.5,-20.01,-27.99,-28.09,0,*67
1519747405.7,36228,6.19,71540.8,-19.99,-27.93,-28.09,0,*69
1519747407.0,36229,6.25,71546.0,-20.01,-27.99,-28.25,0,*67
1519747408.24,36230,6.25,71542.5,-19.99,-27.93,-28.05,0,*6C
1519747409.5,36231,6.19,71536.5,-19.99,-27.99,-28.25,0,*65
1519747410.75,36232,6.19,71542.5,-19.99,-27.93,-28.21,0,*68
1519747411.98,36233,6.19,71540.3,-19.99,-27.89,-28.09,0,*68
1519747413.25,36234,6.19,71540.0,-20.01,-27.93,-28.09,0,*6F
1519747414.49,36235,6.19,71540.8,-19.99,-27.89,-28.09,0,*6E
1519747415.73,36236,6.19,71540.3,-20.01,-27.93,-28.15,0,*60
1519747416.98,36237,6.19,71540.0,-20.01,-27.93,-28.15,0,*61
1519747418.25,36238,6.19,71538.3,-20.01,-27.93,-28.25,0,*6D
1519747419.49,36239,6.19,71542.0,-19.99,-27.89,-28.09,0,*62
1519747420.78,36240,6.25,71544.3,-20.01,-27.83,-28.09,0,*6D
1519747422.01,36241,6.19,71542.3,-19.99,-27.89,-28.05,0,*61
1519747423.3,36242,6.25,71540.5,-20.01,-27.83,-28.09,0,*6F
1519747424.57,36243,6.19,71540.0,-20.01,-27.83,-28.15,0,*63
1519747425.86,36244,6.19,71540.8,-20.01,-27.83,-28.09,0,*69
1519747427.1,36245,6.25,71546.0,-19.99,-27.89,-28.05,0,*65
1519747428.36,36246,6.19,71540.0,-20.01,-27.93,-28.09,0,*6A
1519747429.64,36247,6.19,71542.0,-20.01,-27.93,-28.05,0,*67
1519747430.88,36248,6.19,71542.8,-19.99,-27.77,-28.05,0,*69
1519747432.12,36249,6.19,71542.3,-19.99,-27.77,-28.05,0,*68
1519747433.41,36250,6.19,71542.5,-20.01,-27.83,-28.09,0,*6C
1519747434.64,36251,6.19,71542.0,-19.99,-27.93,-28.09,0,*67
1519747435.89,36252,6.19,71544.3,-20.01,-27.93,-28.15,0,*62
1519747437.18,36253,6.19,71542.3,-20.01,-27.83,-28.09,0,*6F
1519747438.47,36254,6.19,71542.5,-20.01,-27.83,-27.99,0,*6E
1519747439.68,36255,6.25,71542.8,-19.99,-27.89,-27.93,0,*64
1519747440.96,36256,6.19,71542.0,-20.01,-27.83,-28.09,0,*6A
1519747442.25,36257,6.25,71542.5,-20.01,-27.83,-28.09,0,*6B
1519747443.52,36258,6.19,71542.0,-20.01,-27.77,-27.99,0,*69
1519747444.73,36259,6.19,71542.8,-19.99,-27.77,-27.93,0,*69
1519747445.99,36260,6.19,71540.3,-20.01,-27.83,-27.93,0,*63
1519747447.24,36261,6.19,71540.8,-20.01,-27.67,-27.93,0,*68
1519747448.51,36262,6.19,71540.5,-20.01,-27.77,-27.99,0,*60
1519747449.75,36263,6.19,71540.0,-20.01,-27.77,-27.93,0,*6B
1519747451.02,36264,6.19,71540.3,-20.01,-27.93,-27.99,0,*6C
1519747452.29,36265,6.25,71542.5,-20.01,-27.93,-27.99,0,*6D
1519747453.56,36266,6.19,71542.0,-20.01,-27.77,-27.99,0,*64
1519747454.85,36267,6.25,71544.3,-20.01,-27.83,-27.99,0,*6E
1519747456.11,36268,6.19,71540.5,-20.01,-27.83,-27.93,0,*6B
1519747457.32,36269,6.19,71540.3,-19.99,-27.77,-27.89,0,*61
1519747458.62,36270,6.19,71540.3,-20.01,-27.83,-27.99,0,*68
1519747459.88,36271,6.19,71542.5,-20.01,-27.83,-27.93,0,*63
1519747461.17,36272,6.19,71540.5,-20.01,-27.83,-27.99,0,*6A
1519747462.45,36273,6.25,71542.5,-20.01,-27.83,-28.09,0,*6D
1519747463.74,36274,6.19,71536.5,-20.01,-27.83,-28.09,0,*6A
1519747465.01,36275,6.25,71542.3,-20.01,-27.77,-27.99,0,*66
1519747466.26,36276,6.19,71540.8,-20.01,-27.67,-27.93,0,*6E
1519747467.53,36277,6.25,71546.0,-20.01,-27.77,-27.99,0,*64
1519747468.8,36278,6.19,71542.3,-20.01,-27.77,-27.99,0,*6B
1519747470.07,36279,6.19,71538.8,-20.01,-27.77,-27.99,0,*6A
1519747471.28,36280,6.19,71540.3,-19.99,-27.71,-27.93,0,*6B
1519747472.57,36281,6.19,71542.5,-20.01,-27.83,-27.99,0,*66
1519747473.81,36282,6.19,71542.0,-20.01,-27.77,-27.93,0,*64
1519747475.1,36283,6.19,71540.0,-20.01,-27.83,-27.99,0,*64
1519747476.39,36284,6.19,71542.0,-20.01,-27.83,-27.99,0,*63
1519747477.68,36285,6.19,71544.0,-20.01,-27.83,-27.99,0,*62
1519747478.95,36286,6.19,71542.3,-20.01,-27.77,-27.99,0,*6A
1519747480.19,36287,6.19,71542.3,-20.01,-27.77,-27.93,0,*61
1519747481.43,36288,6.25,71544.8,-20.01,-27.77,-27.93,0,*6E
1519747482.64,36289,6.19,71544.0,-19.99,-27.71,-27.89,0,*69
1519747483.89,36290,6.19,71542.5,-20.01,-27.67,-27.93,0,*66
1519747485.16,36291,6.25,71542.3,-20.01,-27.77,-27.99,0,*6C
1519747486.37,36292,6.19,71540.8,-19.99,-27.71,-27.93,0,*68
1519747487.63,36293,6.19,71540.8,-20.01,-27.77,-27.99,0,*6E
1519747488.85,36294,6.19,71540.5,-19.99,-27.71,-27.93,0,*6E
1519747490.09,36295,6.19,71540.5,-20.01,-27.77,-27.93,0,*62
1519747491.33,36296,6.19,71542.3,-20.01,-27.77,-27.93,0,*61
1519747492.62,36297,6.19,71538.0,-20.01,-27.83,-27.99,0,*61
1519747493.83,36298,6.25,71540.8,-19.99,-27.77,-27.89,0,*6F
1519747495.12,36299,6.19,71540.5,-20.01,-27.83,-27.99,0,*6F
1519747496.36,36300,6.19,71540.3,-20.01,-27.77,-27.93,0,*6F
1519747497.6,36301,6.19,71542.0,-20.01,-27.67,-27.93,0,*6F
1519747498.82,36302,6.25,71540.8,-19.99,-27.67,-27.93,0,*67
1519747500.09,36303,6.19,71542.0,-20.01,-27.77,-27.99,0,*66
1519747501.33,36304,6.19,71542.3,-20.01,-27.67,-27.93,0,*6A
1519747502.6,36305,6.19,71542.0,-20.01,-27.77,-27.99,0,*60
1519747503.84,36306,6.25,71544.3,-20.01,-27.67,-27.93,0,*68
1519747505.12,36307,6.25,71544.0,-20.01,-27.61,-27.77,0,*65
1519747506.35,36308,6.19,71540.8,-20.01,-27.51,-27.77,0,*69
1519747507.66,36309,6.19,71540.8,-20.01,-27.61,-27.99,0,*6B
1519747508.9,36310,6.19,71542.5,-20.01,-27.67,-27.93,0,*6F
1519747510.14,36311,6.19,71542.8,-20.01,-27.67,-27.93,0,*6E
1519747511.39,36312,6.19,71546.0,-20.01,-27.67,-27.93,0,*6D
1519747512.6,36313,6.19,71546.0,-19.99,-27.71,-27.89,0,*6B
1519747513.81,36314,6.19,71544.3,-19.99,-27.71,-27.93,0,*67
1519747515.05,36315,6.19,71540.3,-20.01,-27.77,-27.93,0,*6B
1519747516.29,36316,6.19,71542.5,-20.01,-27.67,-27.93,0,*69
1519747517.53,36317,6.19,71540.8,-20.01,-27.67,-27.93,0,*68
1519747518.78,36318,6.19,71544.0,-20.01,-27.67,-27.93,0,*67
1519747520.02,36319,6.19,71542.0,-20.01,-27.77,-27.93,0,*67
1519747521.26,36320,6.19,71542.3,-20.01,-27.67,-27.93,0,*6C
1519747522.48,36321,6.19,71544.3,-20.03,-27.67,-27.93,0,*6F
1519747523.72,36322,6.19,71542.3,-20.03,-27.67,-27.99,0,*66
1519747524.94,36323,6.19,71542.3,-20.05,-27.67,-27.93,0,*6B
1519747526.18,36324,6.19,71540.5,-20.03,-27.67,-27.99,0,*60
1519747527.42,36325,6.19,71540.0,-20.01,-27.67,-27.93,0,*69
1519747528.67,36326,6.19,71540.5,-20.01,-27.67,-27.93,0,*6A
1519747529.91,36327,6.19,71540.8,-20.01,-27.67,-27.93,0,*6B
1519747531.18,36328,6.19,71538.3,-20.01,-27.67,-27.99,0,*6E
1519747532.43,36329,6.19,71540.5,-20.01,-27.67,-27.93,0,*65
1519747533.7,36330,6.25,71544.3,-20.01,-27.67,-27.99,0,*67
1519747534.97,36331,6.19,71540.0,-20.01,-27.61,-27.93,0,*6A
1519747536.25,36332,6.19,71542.8,-20.03,-27.61,-27.99,0,*61
1519747537.49,36333,6.19,71542.5,-20.03,-27.61,-27.93,0,*6A
1519747538.7,36334,6.19,71538.8,-20.03,-27.51,-27.77,0,*64
1519747539.95,36335,6.19,71538.3,-20.03,-27.61,-27.77,0,*66
1519747541.22,36336,6.19,71544.0,-20.03,-27.61,-27.83,0,*6E
1519747542.46,36337,6.25,71542.0,-20.03,-27.51,-27.83,0,*6C
1519747543.73,36338,6.19,71538.5,-20.03,-27.61,-27.83,0,*60
1519747545.0,36339,6.19,71540.0,-20.03,-27.61,-27.83,0,*61
1519747546.28,36340,6.19,71536.3,-20.03,-27.61,-27.83,0,*6F
1519747547.55,36341,6.19,71542.3,-20.01,-27.61,-27.93,0,*6D
1519747548.82,36342,6.19,71542.8,-20.03,-27.61,-27.83,0,*6D
1519747550.12,36343,6.19,71542.8,-20.01,-27.61,-27.83,0,*6E
1519747551.42,36344,6.19,71542.8,-20.01,-27.61,-27.83,0,*69
1519747552.69,36345,6.19,71544.3,-20.01,-27.51,-27.83,0,*6B
1519747553.93,36346,6.19,71540.5,-20.03,-27.61,-27.93,0,*68
1519747555.18,36347,6.19,71540.0,-20.03,-27.61,-27.93,0,*69
1519747556.42,36348,6.19,71542.0,-20.03,-27.51,-27.83,0,*64
1519747557.63,36349,6.19,71540.8,-20.03,-27.51,-27.93,0,*64
1519747558.87,36350,6.19,71538.5,-20.01,-27.51,-27.77,0,*64
1519747560.13,36351,6.19,71540.3,-20.01,-27.35,-27.77,0,*67
1519747561.42,36352,6.19,71542.0,-20.01,-27.35,-27.83,0,*6F
1519747562.68,36353,6.19,71538.8,-20.01,-27.51,-27.83,0,*6C
1519747563.92,36354,6.25,71540.5,-20.01,-27.51,-27.77,0,*60
1519747565.21,36355,6.19,71540.5,-20.01,-27.45,-27.83,0,*6F
1519747566.48,36356,6.19,71542.0,-20.01,-27.51,-27.83,0,*69
1519747567.78,36357,6.19,71540.8,-20.01,-27.61,-27.83,0,*6B
1519747569.05,36358,6.19,71546.0,-20.03,-27.61,-27.83,0,*66
1519747570.27,36359,6.19,71542.5,-20.03,-27.67,-27.93,0,*60
1519747571.51,36360,6.19,71544.8,-20.01,-27.67,-27.93,0,*68
1519747572.79,36361,6.19,71542.5,-20.03,-27.61,-27.99,0,*67
1519747574.06,36362,6.19,71538.5,-20.03,-27.61,-27.83,0,*6F
1519747575.3,36363,6.19,71540.3,-20.03,-27.61,-27.77,0,*65
1519747576.57,36364,6.25,71546.3,-20.01,-27.51,-27.83,0,*68
1519747577.84,36365,6.19,71544.0,-20.01,-27.45,-27.77,0,*67
1519747579.1,36366,6.19,71544.0,-20.01,-27.51,-27.83,0,*6A
1519747580.31,36367,6.19,71542.0,-20.05,-27.51,-27.93,0,*6E
1519747581.55,36368,6.19,71540.0,-20.03,-27.45,-27.93,0,*62
1519747582.76,36369,6.19,71540.8,-20.03,-27.51,-27.93,0,*66
1519747584.03,36370,6.19,71540.3,-20.01,-27.45,-27.77,0,*63
1519747585.3,36371,6.19,71540.8,-20.01,-27.51,-27.83,0,*6C
1519747586.56,36372,6.19,71540.0,-20.01,-27.51,-27.83,0,*6F
1519747587.81,36373,6.19,71540.8,-20.03,-27.61,-27.77,0,*64
1519747589.05,36374,6.19,71540.0,-20.03,-27.51,-27.83,0,*6B
1519747590.31,36375,6.19,71544.0,-20.03,-27.45,-27.83,0,*6F
1519747591.52,36376,6.19,71544.0,-20.03,-27.51,-27.77,0,*62
1519747592.73,36377,6.19,71542.5,-20.05,-27.51,-27.77,0,*65
1519747593.94,36378,6.19,71542.8,-20.03,-27.51,-27.77,0,*6C
1519747595.18,36379,6.19,71540.0,-20.03,-27.51,-27.83,0,*66
1519747596.4,36380,6.19,71544.5,-20.03,-27.51,-27.93,0,*61
1519747597.61,36381,6.19,71542.3,-20.03,-27.51,-27.93,0,*60
1519747598.85,36382,6.19,71540.5,-20.03,-27.51,-27.83,0,*62
1519747600.09,36383,6.19,71542.5,-20.03,-27.51,-27.83,0,*63
1519747601.3,36384,6.19,71544.8,-20.05,-27.51,-27.67,0,*68
1519747602.54,36385,6.19,71544.5,-20.03,-27.51,-27.83,0,*65
1519747603.78,36386,6.19,71544.5,-20.05,-27.51,-27.83,0,*60
1519747605.02,36387,6.19,71542.8,-20.03,-27.51,-27.83,0,*67
1519747606.28,36388,6.19,71540.8,-20.03,-27.45,-27.83,0,*6D
1519747607.51,36389,6.19,71540.5,-20.05,-27.35,-27.77,0,*66
1519747608.75,36390,6.19,71540.5,-20.05,-27.45,-27.77,0,*69
1519747609.98,36391,6.19,71540.8,-20.05,-27.35,-27.77,0,*6F
1519747611.24,36392,6.19,71542.5,-20.01,-27.35,-27.77,0,*68
1519747612.48,36393,6.19,71540.0,-20.03,-27.35,-27.77,0,*6B
1519747613.74,36394,6.19,71542.5,-20.03,-27.45,-27.83,0,*60
1519747615.01,36395,6.19,71540.5,-20.03,-27.45,-27.83,0,*61
1519747616.25,36396,6.19,71544.0,-20.05,-27.45,-27.67,0,*6E
1519747617.51,36397,6.19,71542.5,-20.05,-27.35,-27.61,0,*6E
1519747618.76,36398,6.19,71540.0,-20.01,-27.29,-27.67,0,*6E
1519747620.0,36399,6.19,71542.5,-20.03,-27.35,-27.67,0,*60
1519747621.25,36400,6.19,71542.3,-20.03,-27.45,-27.67,0,*60
1519747622.51,36401,6.25,71546.3,-20.01,-27.35,-27.67,0,*64
1519747623.8,36402,6.19,71540.8,-20.01,-27.35,-27.83,0,*6D
1519747625.07,36403,6.19,71542.8,-20.03,-27.45,-27.83,0,*69
1519747626.31,36404,6.19,71542.5,-20.03,-27.45,-27.77,0,*65
1519747627.54,36405,6.25,71544.3,-20.03,-27.45,-27.77,0,*64
1519747628.78,36406,6.19,71544.0,-20.05,-27.35,-27.77,0,*66
1519747630.04,36407,6.19,71546.3,-20.05,-27.35,-27.83,0,*6C
1519747631.27,36408,6.25,71548.8,-20.05,-27.45,-27.77,0,*6F
1519747632.53,36409,6.19,71540.5,-20.03,-27.35,-27.83,0,*64
1519747633.8,36410,6.19,71540.8,-20.03,-27.35,-27.83,0,*6C
1519747635.03,36411,6.19,71544.0,-20.03,-27.35,-27.67,0,*67
1519747636.27,36412,6.19,71546.5,-20.03,-27.45,-27.77,0,*62
1519747637.51,36413,6.19,71542.3,-20.03,-27.35,-27.77,0,*64
1519747638.75,36414,6.19,71546.5,-20.05,-27.35,-27.67,0,*64
1519747639.99,36415,6.19,71542.8,-20.03,-27.45,-27.67,0,*64
1519747641.24,36416,6.19,71540.8,-20.01,-27.29,-27.67,0,*6F
1519747642.46,36417,6.19,71544.8,-20.05,-27.29,-27.67,0,*6A
1519747643.7,36418,6.19,71544.3,-20.03,-27.45,-27.77,0,*68
1519747644.94,36419,6.25,71544.8,-20.03,-27.45,-27.77,0,*69
1519747646.2,36420,6.19,71544.5,-20.05,-27.35,-27.61,0,*65
1519747647.49,36421,6.19,71542.8,-20.01,-27.45,-27.83,0,*6B
1519747648.73,36422,6.19,71542.3,-20.03,-27.35,-27.77,0,*66
1519747649.96,36423,6.19,71546.3,-20.03,-27.35,-27.77,0,*67
1519747651.25,36424,6.19,71544.3,-20.01,-27.35,-27.61,0,*65
1519747652.51,36425,6.19,71546.5,-20.05,-27.35,-27.61,0,*60
1519747653.8,36426,6.19,71540.8,-20.01,-27.35,-27.61,0,*67
1519747655.04,36427,6.19,71540.5,-20.03,-27.35,-27.77,0,*63
1519747656.28,36428,6.19,71546.0,-20.03,-27.45,-27.67,0,*6A
1519747657.52,36429,6.19,71540.0,-20.05,-27.35,-27.67,0,*6A
1519747658.76,36430,6.19,71546.5,-20.05,-27.35,-27.67,0,*62
1519747660.0,36431,6.19,71542.3,-20.05,-27.29,-27.61,0,*68
1519747661.22,36432,6.19,71542.3,-20.03,-27.29,-27.67,0,*6B
1519747662.47,36433,6.19,71540.5,-20.01,-27.29,-27.77,0,*69
1519747663.69,36434,6.19,71542.3,-20.03,-27.29,-27.67,0,*6D
1519747664.94,36435,6.19,71542.3,-20.03,-27.45,-27.67,0,*66
1519747666.18,36436,6.19,71546.5,-20.03,-27.35,-27.67,0,*62
1519747667.41,36437,6.19,71546.3,-20.03,-27.35,-27.67,0,*63
1519747668.68,36438,6.19,71546.5,-20.03,-27.35,-27.61,0,*6A
1519747669.92,36439,6.19,71544.0,-20.03,-27.29,-27.61,0,*66
1519747671.17,36440,6.19,71546.5,-20.03,-27.45,-27.67,0,*64
1519747672.42,36441,6.19,71544.0,-20.03,-27.29,-27.61,0,*69
1519747673.64,36442,6.19,71544.8,-20.03,-27.29,-27.67,0,*6C
1519747674.88,36443,6.19,71542.8,-20.03,-27.29,-27.61,0,*6B
1519747676.13,36444,6.19,71540.3,-20.03,-27.29,-27.61,0,*6C
1519747677.38,36445,6.19,71540.5,-20.03,-27.29,-27.61,0,*6D
1519747678.62,36446,6.19,71542.8,-20.03,-27.23,-27.67,0,*62
1519747679.86,36447,6.19,71546.3,-20.03,-27.23,-27.67,0,*63
1519747681.08,36448,6.19,71540.0,-20.03,-27.29,-27.67,0,*66
1519747682.32,36449,6.19,71542.0,-20.05,-27.35,-27.67,0,*6C
1519747683.59,36450,6.25,71548.8,-20.01,-27.35,-27.67,0,*60
1519747684.83,36451,6.19,71542.8,-20.05,-27.35,-27.67,0,*65
1519747686.07,36452,6.19,71544.0,-20.03,-27.35,-27.67,0,*60
1519747687.33,36453,6.19,71544.3,-20.03,-27.35,-27.61,0,*67
1519747688.59,36454,6.19,71538.3,-20.03,-27.35,-27.61,0,*60
1519747689.84,36455,6.19,71546.0,-20.03,-27.29,-27.61,0,*6C
1519747691.06,36456,6.19,71542.8,-20.03,-27.29,-27.67,0,*69
1519747692.3,36457,6.19,71542.8,-20.05,-27.35,-27.67,0,*63
1519747693.56,36458,6.19,71542.5,-20.03,-27.35,-27.61,0,*6C
1519747694.8,36459,6.19,71540.8,-20.03,-27.35,-27.67,0,*6B
1519747696.05,36460,6.19,71544.3,-20.03,-27.29,-27.61,0,*6A
1519747697.29,36461,6.19,71542.0,-20.05,-27.29,-27.61,0,*6D
1519747698.52,36462,6.19,71544.0,-20.03,-27.29,-27.67,0,*6E
1519747699.74,36463,6.19,71540.5,-20.03,-27.29,-27.67,0,*6F
1519747700.98,36464,6.19,71546.3,-20.05,-27.35,-27.67,0,*63